This demonstration page uses our WeatherBlox Daily Observations layout. Learn more.

Left ArrowRight Arrow

39.51506, -84.39828

Hourly Observations for May 12, 2016

Temp ( °F °C ) Dew Point ( °F °C ) Humidity (%) Winds ( mph kmh ) Pressure ( in mb ) Visibility ( mi km ) Precip ( " mm )
12:15 am 00:15 Partly Cloudy 64 18 59 15 83 83 undefined N/A 30.00 1016 10 16 N/A
12:35 am 00:35 Partly Cloudy 69 20.8 60 15.5 72 72 undefined N/A 30.00 1016 10 16 N/A
12:55 am 00:55 Clear 69 20.8 60 15.4 71 71 undefined N/A 30.03 1017 10 16 N/A
1:15 am 01:15 Clear 69 20.8 60 15.6 72 72 SSW 5 7 30.03 1017 10 16 N/A
1:30 am 01:30 Clear 69 20.8 60 15.5 72 72 undefined N/A 30.00 1016 10 16 N/A
1:55 am 01:55 Clear 67 19.5 60 15.5 78 78 N N/A 30.00 1016 10 16 N/A
2:15 am 02:15 Clear 64 17.9 58 14.2 79 79 undefined N/A 30.00 1016 10 16 N/A
2:35 am 02:35 Clear 62 16.8 56 13.6 82 82 N 3 6 30.00 1016 10 16 N/A
2:55 am 02:55 Clear 62 16.8 56 13.6 82 82 undefined N/A 30.00 1016 10 16 N/A
3:15 am 03:15 Clear 62 16.6 56 13.5 82 82 undefined N/A 30.00 1016 10 16 N/A
3:35 am 03:35 Clear 62 16.6 56 13.5 82 82 undefined N/A 30.03 1017 10 16 N/A
3:55 am 03:55 Clear 62 16.6 56 13.6 83 83 undefined N/A 30.03 1017 7 11 N/A
4:15 am 04:15 Clear 62 16.6 56 13.6 83 83 undefined N/A 30.03 1017 10 16 N/A
4:35 am 04:35 Clear 62 16.6 56 13.6 83 83 undefined N/A 30.00 1016 7 11 N/A
4:55 am 04:55 Clear 61 16 55 13 83 83 NW 3 6 30.00 1016 10 16 N/A
5:15 am 05:15 Clear 60 15.8 55 12.9 83 83 undefined N/A 29.97 1015 7 11 N/A
5:35 am 05:35 Hazy 60 15.3 55 12.5 84 84 undefined N/A 29.97 1015 5 8 N/A
5:55 am 05:55 Clear 60 15.5 55 12.7 84 84 undefined N/A 29.97 1015 10 16 N/A
6:15 am 06:15 Hazy 59 15.1 54 12.3 83 83 SSW 3 6 30.03 1017 4 6 N/A
6:35 am 06:35 Hazy 60 15.3 55 12.5 84 84 SW 6 9 30.03 1017 5 8 N/A
6:55 am 06:55 Sunny 60 15.8 55 13 84 84 undefined N/A 30.00 1016 7 11 N/A
7:15 am 07:15 Sunny 61 16 56 13.1 83 83 undefined N/A 30.00 1016 7 11 N/A
7:35 am 07:35 Sunny 62 16.6 57 13.7 83 83 N N/A 30.00 1016 7 11 N/A
7:55 am 07:55 Sunny 64 18 58 14.5 80 80 undefined N/A 30.00 1016 10 16 N/A
8:15 am 08:15 Sunny 66 19.1 59 15 77 77 SSW 6 9 30.03 1017 10 16 N/A
8:35 am 08:35 Sunny 67 19.5 60 15.3 77 77 undefined N/A 30.03 1017 10 16 N/A
8:55 am 08:55 Partly Cloudy 69 20.8 62 16.5 77 77 undefined N/A 30.03 1017 10 16 N/A
9:15 am 09:15 Mostly Cloudy 69 20.8 61 16 74 74 undefined N/A 30.03 1017 10 16 N/A
9:35 am 09:35 Partly Cloudy 69 20.8 60 15.8 73 73 undefined N/A 30.06 1018 10 16 N/A
9:55 am 09:55 Partly Cloudy 69 20.8 60 15.4 71 71 undefined N/A 30.06 1018 10 16 N/A
10:15 am 10:15 Sunny 69 20.8 59 15.2 70 70 undefined N/A 30.03 1017 10 16 N/A
10:35 am 10:35 Sunny 69 20.8 59 15 70 70 undefined N/A 30.03 1017 10 16 N/A
10:55 am 10:55 Sunny 72 22.2 60 15.3 65 65 undefined N/A 30.00 1016 10 16 N/A
11:15 am 11:15 Sunny 74 23.6 60 15.5 61 61 undefined N/A 30.00 1016 10 16 N/A
11:35 am 11:35 Sunny 74 23.6 59 15.1 59 59 undefined N/A 30.00 1016 10 16 N/A
11:55 am 11:55 Mostly Cloudy 74 23.6 58 14.5 57 57 undefined N/A 30.00 1016 10 16 N/A
12:15 pm 12:15 Partly Cloudy 74 23.6 56 13.4 53 53 undefined N/A 30.00 1016 10 16 N/A
12:35 pm 12:35 Partly Cloudy 74 23.6 57 13.8 54 54 undefined N/A 30.00 1016 10 16 N/A
12:55 pm 12:55 Mostly Cloudy 75 24.1 58 14.3 54 54 undefined N/A 30.00 1016 10 16 N/A
1:15 pm 13:15 Mostly Cloudy 77 25.1 59 15 54 54 undefined N/A 30.00 1016 10 16 N/A
1:35 pm 13:35 Mostly Cloudy 77 25.1 59 14.8 53 53 undefined N/A 29.97 1015 10 16 N/A
1:55 pm 13:55 Mostly Cloudy 74 23.6 60 15.3 60 60 undefined N/A 30.00 1016 10 16 N/A
2:15 pm 14:15 Cloudy 74 23.6 59 15 59 59 undefined N/A 29.97 1015 10 16 N/A
2:35 pm 14:35 Cloudy 75 24 59 14.8 57 57 undefined N/A 29.97 1015 10 16 N/A
2:55 pm 14:55 Cloudy 74 23.6 58 14.7 58 58 undefined N/A 29.97 1015 10 16 N/A
3:15 pm 15:15 Cloudy 77 25.1 60 15.4 55 55 undefined N/A 29.94 1014 10 16 N/A
3:35 pm 15:35 Mostly Cloudy 77 25.1 60 15.5 55 55 undefined N/A 29.94 1014 10 16 N/A
3:55 pm 15:55 Partly Cloudy 77 25.1 58 14.5 52 52 undefined N/A 29.94 1014 10 16 N/A
4:15 pm 16:15 Sunny 78 25.4 57 14 49 49 SSW 9 15 29.91 1013 10 16 N/A
4:35 pm 16:35 Partly Cloudy 77 25.1 57 14.1 51 51 undefined N/A 29.91 1013 10 16 N/A
4:55 pm 16:55 Partly Cloudy 77 25.1 57 14 50 50 undefined N/A 29.88 1012 10 16 N/A
5:15 pm 17:15 Partly Cloudy 76 24.7 59 14.9 55 55 undefined N/A 29.88 1012 10 16 N/A
5:35 pm 17:35 Partly Cloudy 74 23.6 60 15.3 60 60 undefined N/A 29.88 1012 10 16 N/A
5:55 pm 17:55 Partly Cloudy 74 23.6 62 16.5 65 65 undefined N/A 29.88 1012 10 16 N/A
6:15 pm 18:15 Sunny 74 23.6 62 16.7 65 65 undefined N/A 29.88 1012 10 16 N/A
6:35 pm 18:35 Sunny 74 23.6 61 16.1 63 63 undefined N/A 29.88 1012 10 16 N/A
6:55 pm 18:55 Sunny 74 23.2 60 15.8 63 63 undefined N/A 29.88 1012 10 16 N/A
7:15 pm 19:15 Sunny 72 22.1 60 15.6 67 67 undefined N/A 29.88 1012 10 16 N/A
7:35 pm 19:35 Partly Cloudy 71 21.6 59 15.2 67 67 undefined N/A 29.88 1012 10 16 N/A
7:55 pm 19:55 Partly Cloudy 70 21.1 59 15 68 68 undefined N/A 29.88 1012 10 16 N/A
8:15 pm 20:15 Mostly Cloudy with Light Rain 69 20.8 61 16 74 74 undefined N/A 29.88 1012 10 16 N/A
8:35 pm 20:35 Cloudy with Light Rain 69 20.8 63 17 79 79 SSW 5 7 29.88 1012 10 16 N/A
8:55 pm 20:55 Cloudy with Light Rain 69 20.8 63 17.2 80 80 SSW 5 7 29.91 1013 10 16 N/A
9:15 pm 21:15 Cloudy with Rain 69 20.8 63 17.3 80 80 SSW 3 6 29.91 1013 10 16 N/A
9:35 pm 21:35 Cloudy with Light Rain 69 20.8 63 17.3 80 80 SSW 7 11 29.91 1013 10 16 N/A
9:55 pm 21:55 Cloudy with Rain 69 20.8 63 17.1 79 79 NNW 6 9 29.91 1013 10 16 N/A
10:15 pm 22:15 Cloudy with Rain 69 20.8 63 17.3 80 80 N 6 9 29.91 1013 10 16 N/A
10:35 pm 22:35 Cloudy with Rain 61 16.1 53 11.7 75 75 undefined N/A 29.94 1014 5 8 N/A
10:55 pm 22:55 Cloudy with Rain 61 16 54 12 77 77 undefined N/A 29.94 1014 7 11 N/A
11:15 pm 23:15 Cloudy with Light Rain 62 16.6 55 13 79 79 NNW 3 6 29.94 1014 10 16 N/A
11:35 pm 23:35 Cloudy with Light Rain 62 16.6 56 13.1 80 80 N N/A 29.91 1013 10 16 N/A
11:55 pm 23:55 Cloudy with Drizzle 62 16.6 56 13.1 80 80 N N/A 29.91 1013 10 16 N/A

Powered by AerisWeather